Regional Weather Roundup
Issued by NWS Sterling, VA

Home | Current Version | Previous Version | Graphics & Text | Print | Product List | Glossary On
Versions: 1 2 3 4 5 6 7 8 9 10 11 12 13 14 15 16 17 18 19 20 21 22 23 24 25 26 27
000
ASUS41 KLWX 231811
RWRLWX

REGIONAL WEATHER ROUNDUP
NATIONAL WEATHER SERVICE BALTIMORE MD/WASHINGTON DC
100 PM EST THU NOV 23 2017

Note: "FAIR" indicates few or no clouds below 12,000 feet
with no significant weather and/or obstructions to visibility.
 TC=TEMPERATURE CELSIUS

 * =Non NWS site. Station does not report precipitation (e.g. rain,
    snow, etc.), thunder, or fog.

DCZ001-MDZ009-015-VAZ040>042-051-053>054-231900-
WASHINGTON METRO

CITY           SKY/WX    TMP DP  RH WIND       PRES   REMARKS
WASHINGTON NAT MOSUNNY   45  22  40 CALM      30.11F
DULLES         MOSUNNY   43  22  43 VRB7      30.10F
ANDREWS AFB    SUNNY     42  20  41 W8        30.09F
FT BELVOIR     SUNNY     44  20  38 NW5       30.11F
COLLEGE PARK*  SUNNY     41  21  45 SW5       30.10F
LEESBURG*      SUNNY     43  27  52 NW5       30.10F
MANASSAS*      SUNNY     44  22  41 SW6       30.11F
GAITHERSBURG*  SUNNY     41  22  46 W10       30.09F

$$

MDZ006>007-011-014-231900-
BALTIMORE METRO

CITY           SKY/WX    TMP DP  RH WIND       PRES   REMARKS
BWI AIRPORT    MOSUNNY   42  23  46 W5        30.09F
MD SCIENCE CTR   N/A     43  23  45 MISG      30.11F
MARTIN STATE   SUNNY     43  25  49 CALM      30.11F
FORT MEADE*    SUNNY     41  23  48 S3        30.12F

$$

MDZ012-015-019>023-231900-
MARYLAND EASTERN SHORE

CITY           SKY/WX    TMP DP  RH WIND       PRES   REMARKS
OCEAN CITY     CLOUDY    39  24  55 NW7       30.12S
SALISBURY      CLOUDY    39  25  57 W6        30.11F
CAMBRIDGE*     SUNNY     41  25  52 NW6       30.12F
EASTON*        MOSUNNY   41  21  45 NW3       30.14F

$$

MDZ017>025-231900-
SOUTHERN MARYLAND

CITY           SKY/WX    TMP DP  RH WIND       PRES   REMARKS
PATUXENT RIVER SUNNY     42  24  49 VRB5      30.12F
ST INIGOES     SUNNY     41  25  53 W6        30.12F
LEONARDTOWN*   SUNNY     41  23  48 CALM      30.13F

$$

MDZ003>005-231900-
NORTH CENTRAL MARYLAND

CITY           SKY/WX    TMP DP  RH WIND       PRES   REMARKS
FREDERICK*     SUNNY     43  19  39 CALM      30.13F
HAGERSTOWN APT SUNNY     41  23  48 CALM      30.08F
WESTMINSTER*   SUNNY     37  25  60 NW6       30.07F

$$

MDZ501>502-231900-
WESTERN MARYLAND

CITY           SKY/WX    TMP DP  RH WIND       PRES   REMARKS
OAKLAND*       SUNNY     32  21  64 NW5       29.96F
CUMBERLAND*    SUNNY     43  23  45 SE5       30.11F

$$

VAZ025>031-231900-
SHENANDOAH VALLEY

CITY           SKY/WX    TMP DP  RH WIND       PRES   REMARKS
WINCHESTER*    SUNNY     41  23  48 SW3       30.08F
FRONT ROYAL*   SUNNY     41  23  48 MISG      30.08F
LURAY*         SUNNY     41  27  56 CALM      30.08F
NEW MARKET*    SUNNY     41  22  46 SW6       30.07F
STAUNTON*      SUNNY     39  23  53 SW3       30.09F
WAYNESBORO*    SUNNY     40  24  51 SW3       30.06F

$$

WVZ021-048>050-054>055-231900-
EASTERN WEST VIRGINIA PANHANDLE

CITY           SKY/WX    TMP DP  RH WIND       PRES   REMARKS
MARTINSBURG    SUNNY     42  19  39 W8        30.08F
PETERSBURG*    SUNNY     44  22  42 N3        30.05F

$$

VAZ036>039-050-231900-
CENTRAL FOOTHILLS

CITY           SKY/WX    TMP DP  RH WIND       PRES   REMARKS
CHARLOTTESVILL SUNNY     43  24  47 SW7       30.09F
CULPEPER*      SUNNY     44  23  44 SW7       30.12F
ORANGE*        SUNNY     43  27  52 CALM      30.11F
GORDONSVILLE*  SUNNY     42  25  51 SW8       30.11F
WARRENTON*     NOT AVBL

$$

VAZ055>057-231900-
NORTH AND CENTRAL PIEDMONT

CITY           SKY/WX    TMP DP  RH WIND       PRES   REMARKS
FREDERICKSBRG* SUNNY     44  26  49 SW3       30.12F
STAFFORD*      SUNNY     43  22  44 CALM      30.15F

$$

NCZ024-NYZ072-PAZ021-071-VAZ022-071-231900-
OTHER REGIONAL OBSERVATIONS

CITY           SKY/WX    TMP DP  RH WIND       PRES   REMARKS
NEW YORK CITY  SUNNY     40  17  39 NW7       30.07F
PHILADELPHIA   MOSUNNY   41  18  39 VRB5      30.09F
PITTSBURGH     PTSUNNY   36  22  56 SW9       30.07F WCI  29
ROANOKE        SUNNY     45  24  43 SE5       30.09F
RICHMOND       CLOUDY    42  24  49 CALM      30.13F
RALEIGH        PTSUNNY   48  26  42 S3        30.13F

$$

ANZ530>537-231900-
MARINE OBSERVATIONS

STATION/POSITION TIME  TEMP    WIND        PRES
                       AIR SEA DIR/SP/G
                 (UTC) (F)     (DEG/KT/KT) (MB)
THOMAS PT LIGHT  1800   40 51  250/  4/  5   N/A
BALT KEY BRIDGE  1736   40     320/  4/  4 1019.5F
COVE POINT       1736   38      40/  6/  8 1020.7F
LEWISETTA        1736   39 50  330/  4/  6 1020.4F
SOLOMONS ISLAND  1736   39 53  340/  5/  6 1019.8F
PINEY POINT      1736          300/  6/  8   N/A

$$





USA.gov is the U.S. government's official web portal to all federal, state and local government web resources and services.